Retour au catalogue

CZ-6A DEB

ActifSSO
NORAD 56645·DEBRIS·🇨🇳 China

Lancé Nov 11, 2022 depuis Taiyuan Satellite Launch Center

Loading…

Prochains Passages (prochaines 24 heures)

TLE

VieillissantSource: Space-Track

Époque: Sep 5, 2026, 05:58 UTC

1 56645U 22151AFV 26248.24861780  .00000908  00000-0  45172-3 0  9994
2 56645  98.8037 254.6128 0042276 110.8287 249.7424 14.19026488174297

Suivez CZ-6A DEB en temps réel avec AllMySat

Download on the App Store